星链-3794 (STARLINK-3794 )

导读

STARLINK-3794是美国SpaceX星链(Starlink)星座中的一颗低轨互联网卫星,于2022年5月14日发射升空。星链项目旨在构建全球覆盖的高性价比卫星互联网系统,为偏远、网络欠发达区域提供宽带服务。 这颗卫星运行在近地轨道,属于星链大规模组网的组成部分,依托猎鹰九号火箭完成发射,支撑星链实现全球随地接入高速互联网的目标,目前仍在轨参与星座运营服务。

基本信息
目录编号:
52631
目录名称:
STARLINK-3794
国际标识:
2022-052AK
轨道中心:
EARTH
卫星名称:
星链-3794
卫星全名:
星链-3794 (STARLINK-3794 )
卫星状态:
在轨 (已飞行1493 天)
发射日期:
2022-05-14 UTC
国别 :
美国 (US)
星等 :
--
轨道信息
数据来源 国际轨道数据 AOE轨道数据
星历时间 2026-06-14T16:29:01+0800
22小时前
查看轨道信息
2026-06-15T08:00:00+0800
7小时前
查看轨道信息
半长轴 6917.92km 6917.928km
偏心率 0.0001231 0.0001965
轨道倾角 53.161° 53.158°
近地点辐角 84.114° 57.541°
升交点赤经 195.110° 192.210°
平近点角 275.999° 216.232°
近地点 538.931km 538.431km
远地点 540.635km 541.151km
周期 95.438分钟 95.439分钟
每日圈数 15.088273 15.088245
详细信息
固有亮度:
5
最大亮度:
2.5
卫星平台:
Starlink v1.5
覆盖范围:
全球
运营商:
太空探索技术公司
运营商所在国:
美国
制造商(研发单位):
太空探索技术公司
制造商所在国:
美国
使用方式:
暂无
卫星简介
星链(Starlink)计划是由太空探索技术公司(SpaceX)提出的一个巨型低轨卫星互联网星座项目,计划在2019年至2024年间在太空搭建由约1.2万颗卫星组成的“星链”网络,其中1584颗将部署在地球上空550千米处的近地轨道,并从2020年开始工作。该卫星仍在工作。
2D轨道图
3D轨道图
轨道高度分析图
轨道倾角分析图
轨道综合分析图
查看轨道综合分析图